KD0ARW-13 Weather Reports


time (UTC)temp
C
wind
direction
speed
KPH
gust
KPH
rain 1hr
cm
rain 24hr
cm
rain mn
cm
humidity
%
barometer
mb
20260507224644 25 246 0.0 0.0 0.00 0.23 0.00
20260507224146 25 246 1.6 0.0 0.00 0.23 0.00
20260507223648 25 287 1.6 0.0 0.00 0.23 0.00
20260507223149 24 316 6.4 0.0 0.00 0.23 0.00
20260507222651 25 224 8.0 0.0 0.00 0.23 0.00
20260507222152 25 290 3.2 0.0 0.00 0.23 0.00
20260507221654 25 359 9.7 0.0 0.00 0.23 0.00
20260507221155 25 300 4.8 8.0 0.00 0.23 0.00
20260507220657 25 315 4.8 12.9 0.00 0.23 0.00
20260507220159 25 18 4.8 11.3 0.00 0.23 0.00
20260507215700 24 139 0.0 0.0 0.00 0.23 0.00
20260507215202 24 302 0.0 0.0 0.00 0.23 0.00
20260507214704 24 242 0.0 0.0 0.00 0.23 0.00
20260507214205 24 205 6.4 0.0 0.00 0.23 0.00
20260507213706 24 231 1.6 0.0 0.00 0.23 0.00
20260507213207 25 4 11.3 4.8 0.00 0.23 0.00
20260507212709 24 273 3.2 0.0 0.00 0.23 0.00
20260507212210 24 298 6.4 9.7 0.00 0.23 0.00
20260507211712 25 277 12.9 11.3 0.00 0.23 0.00
20260507211213 25 329 8.0 8.0 0.00 0.23 0.00
20260507210715 25 285 8.0 4.8 0.00 0.23 0.00
20260507210217 25 253 8.0 8.0 0.00 0.23 0.00
20260507205718 24 301 0.0 0.0 0.00 0.23 0.00
20260507205219 24 359 8.0 12.9 0.00 0.23 0.00
20260507204722 24 352 1.6 16.1 0.00 0.23 0.00
20260507204222 24 277 6.4 4.8 0.00 0.23 0.00
20260507203724 24 267 4.8 11.3 0.00 0.23 0.00
20260507203226 24 231 8.0 12.9 0.00 0.23 0.00
20260507202727 24 328 1.6 0.0 0.00 0.23 0.00
20260507202229 24 359 3.2 0.0 0.00 0.23 0.00
20260507201730 24 290 6.4 16.1 0.00 0.23 0.00
20260507201232 23 248 6.4 0.0 0.00 0.23 0.00
20260507200733 23 250 11.3 4.8 0.00 0.23 0.00
20260507200235 23 221 8.0 0.0 0.00 0.23 0.00
20260507195736 23 13 11.3 11.3 0.00 0.23 0.00
20260507195238 23 333 12.9 9.7 0.00 0.23 0.00
20260507194739 23 339 14.5 11.3 0.00 0.23 0.00
20260507194240 23 270 8.0 9.7 0.00 0.23 0.00
20260507193742 23 325 9.7 9.7 0.00 0.23 0.00
20260507193243 23 335 3.2 8.0 0.00 0.23 0.00
20260507192745 23 6 11.3 12.9 0.00 0.23 0.00
20260507192246 23 273 8.0 4.8 0.00 0.23 0.00
20260507191748 23 319 8.0 6.4 0.00 0.23 0.00
20260507191249 23 297 8.0 11.3 0.00 0.23 0.00
20260507190752 23 329 11.3 9.7 0.00 0.23 0.00
20260507190252 23 359 14.5 11.3 0.00 0.23 0.00
20260507185755 23 345 12.9 11.3 0.00 0.23 0.00
20260507185255 23 359 8.0 12.9 0.00 0.23 0.00
20260507184757 23 338 3.2 0.0 0.00 0.23 0.00
20260507184259 23 249 8.0 8.0 0.00 0.23 0.00
20260507183800 23 281 6.4 8.0 0.00 0.23 0.00
20260507183301 22 328 9.7 4.8 0.00 0.23 0.00
20260507182803 22 335 17.7 17.7 0.00 0.23 0.00
20260507182307 22 290 16.1 11.3 0.00 0.23 0.00
20260507181807 22 350 9.7 8.0 0.00 0.23 0.00
20260507181308 22 287 11.3 9.7 0.00 0.23 0.00
20260507180809 22 352 11.3 14.5 0.00 0.23 0.00
20260507180310 22 315 14.5 14.5 0.00 0.23 0.00
20260507175812 23 297 6.4 0.0 0.00 0.23 0.00
20260507175313 22 242 6.4 8.0 0.00 0.23 0.00
20260507174318 22 4 9.7 20.9 0.00 0.23 0.00
20260507173818 23 3 0.0 9.7 0.00 0.23 0.00
20260507173319 22 257 9.7 0.0 0.00 0.23 0.00
20260507172821 22 297 0.0 0.0 0.00 0.23 0.00
20260507172322 22 291 4.8 6.4 0.00 0.23 0.00
20260507171824 22 219 3.2 4.8 0.00 0.23 0.00
20260507171325 21 314 8.0 12.9 0.00 0.23 0.00
20260507170827 21 359 9.7 12.9 0.00 0.23 0.00
20260507170328 20 283 8.0 4.8 0.00 0.23 0.00
20260507165830 20 332 0.0 9.7 0.00 0.23 0.00
20260507165331 19 335 12.9 17.7 0.00 0.23 0.00
20260507164832 19 336 12.9 8.0 0.00 0.23 0.00
20260507164334 18 293 0.0 8.0 0.00 0.23 0.00
20260507163835 18 339 12.9 12.9 0.00 0.23 0.00
20260507163337 18 335 12.9 19.3 0.00 0.23 0.00
20260507162838 18 316 12.9 9.7 0.00 0.23 0.00
20260507162340 18 276 9.7 8.0 0.00 0.23 0.00
20260507161841 18 357 4.8 14.5 0.00 0.23 0.00
20260507161343 17 302 8.0 14.5 0.00 0.23 0.00
20260507160844 17 294 9.7 0.0 0.00 0.23 0.00
20260507160346 17 318 4.8 8.0 0.00 0.23 0.00
20260507155847 17 270 6.4 0.0 0.00 0.23 0.00
20260507155349 16 359 8.0 4.8 0.00 0.23 0.00
20260507154850 16 343 3.2 4.8 0.00 0.23 0.00
20260507154352 16 290 4.8 12.9 0.00 0.23 0.00
20260507153853 15 285 4.8 4.8 0.00 0.23 0.00
20260507153355 15 264 1.6 0.0 0.00 0.23 0.00
20260507152856 15 343 3.2 0.0 0.00 0.23 0.00
20260507152358 15 277 4.8 8.0 0.00 0.23 0.00
20260507151859 15 297 1.6 6.4 0.00 0.23 0.00
20260507151401 14 271 6.4 12.9 0.00 0.23 0.00
20260507150903 14 297 4.8 9.7 0.00 0.23 0.00
20260507150404 14 266 11.3 12.9 0.00 0.23 0.00
20260507145906 13 277 3.2 8.0 0.00 0.23 0.00
20260507145407 13 271 4.8 6.4 0.00 0.23 0.00
20260507144909 15 339 6.4 8.0 0.00 0.23 0.00
20260507144410 14 270 8.0 4.8 0.00 0.23 0.00
20260507143912 11 277 8.0 11.3 0.00 0.23 0.00
20260507143413 11 316 8.0 0.0 0.00 0.23 0.00
20260507142913 10 270 8.0 6.4 0.00 0.23 0.00
20260507142415 10 271 11.3 6.4 0.00 0.23 0.00
20260507141915 9 257 4.8 9.7 0.00 0.23 0.00
20260507141416 9 301 9.7 8.0 0.00 0.23 0.00
20260507140918 8 248 6.4 0.0 0.00 0.23 0.00
20260507140417 8 228 8.0 9.7 0.00 0.23 0.00
20260507135918 8 281 1.6 8.0 0.00 0.23 0.00
20260507135420 8 318 9.7 4.8 0.00 0.23 0.00
20260507134919 7 298 1.6 8.0 0.00 0.23 0.00
20260507134419 7 264 4.8 9.7 0.00 0.23 0.00
20260507133921 7 359 0.0 0.0 0.00 0.23 0.00
20260507133421 7 359 0.0 0.0 0.00 0.23 0.00
20260507132918 6 359 0.0 0.0 0.00 0.23 0.00
20260507132418 6 359 0.0 0.0 0.00 0.23 0.00
20260507131917 6 295 9.7 8.0 0.00 0.23 0.00
20260507131420 6 252 8.0 4.8 0.00 0.23 0.00
20260507130918 5 349 9.7 0.0 0.00 0.23 0.00
20260507130420 5 158 8.0 0.0 0.00 0.23 0.00
20260507125922 5 276 6.4 4.8 0.00 0.23 0.00
20260507125423 5 266 8.0 0.0 0.00 0.23 0.00
20260507124925 5 245 6.4 4.8 0.00 0.23 0.00
20260507124423 5 267 6.4 8.0 0.00 0.23 0.00
20260507123924 4 271 1.6 0.0 0.00 0.23 0.00
20260507123425 4 13 3.2 4.8 0.00 0.23 0.00
20260507122927 4 245 0.0 0.0 0.00 0.23 0.00
20260507122427 3 184 6.4 4.8 0.00 0.23 0.00
20260507121929 3 253 1.6 0.0 0.00 0.23 0.00
20260507121429 3 273 0.0 0.0 0.00 0.23 0.00
20260507120931 3 273 0.0 0.0 0.00 0.23 0.00
20260507120428 3 273 0.0 0.0 0.00 0.23 0.00
20260507115930 3 273 0.0 0.0 0.00 0.23 0.00
20260507115429 3 273 0.0 0.0 0.00 0.23 0.00
20260507114930 3 273 0.0 0.0 0.00 0.23 0.00
20260507114428 3 273 0.0 0.0 0.00 0.23 0.00
20260507113929 3 273 0.0 0.0 0.00 0.23 0.00
20260507113433 3 273 0.0 0.0 0.00 0.23 0.00
20260507112931 3 273 0.0 0.0 0.00 0.23 0.00
20260507112432 3 273 0.0 0.0 0.00 0.23 0.00
20260507111933 3 273 0.0 0.0 0.00 0.23 0.00
20260507111434 3 273 0.0 0.0 0.00 0.23 0.00
20260507110936 3 273 0.0 0.0 0.00 0.23 0.00
20260507110437 3 273 0.0 0.0 0.00 0.23 0.00
20260507105940 3 273 0.0 0.0 0.00 0.23 0.00
20260507105441 3 273 0.0 0.0 0.00 0.23 0.00
20260507104943 3 273 0.0 0.0 0.00 0.23 0.00
20260507104444 3 273 0.0 0.0 0.00 0.23 0.00
20260507103944 3 273 0.0 0.0 0.00 0.23 0.00
20260507103442 3 273 0.0 0.0 0.00 0.23 0.00
20260507102944 3 273 0.0 0.0 0.00 0.23 0.00
20260507102445 3 273 0.0 0.0 0.00 0.23 0.00
20260507101947 3 273 0.0 0.0 0.00 0.23 0.00
20260507101448 4 273 0.0 0.0 0.00 0.23 0.00
20260507100950 4 273 0.0 0.0 0.00 0.23 0.00
20260507100452 4 273 0.0 0.0 0.00 0.23 0.00
20260507095953 4 273 0.0 0.0 0.00 0.23 0.00
20260507095455 4 273 0.0 0.0 0.00 0.23 0.00
20260507094956 4 273 0.0 0.0 0.00 0.23 0.00
20260507094458 4 273 0.0 0.0 0.00 0.23 0.00
20260507093957 3 273 0.0 0.0 0.00 0.23 0.00
20260507093000 3 273 0.0 0.0 0.00 0.23 0.00
20260507092502 4 273 0.0 0.0 0.00 0.23 0.00
20260507092003 4 273 0.0 0.0 0.00 0.23 0.00
20260507091505 4 273 0.0 0.0 0.00 0.23 0.00
20260507091006 4 273 0.0 0.0 0.00 0.23 0.00
20260507090508 4 273 0.0 0.0 0.00 0.23 0.00
20260507090009 5 273 0.0 0.0 0.00 0.23 0.00
20260507085510 5 273 0.0 0.0 0.00 0.23 0.00
20260507085011 5 273 0.0 0.0 0.00 0.23 0.00
20260507084511 5 273 0.0 0.0 0.00 0.23 0.00
20260507084013 5 273 0.0 0.0 0.00 0.23 0.00
20260507083515 5 273 0.0 0.0 0.00 0.23 0.00
20260507083012 5 273 0.0 0.0 0.00 0.23 0.00
20260507082514 5 273 0.0 0.0 0.00 0.23 0.00
20260507082015 5 273 0.0 0.0 0.00 0.23 0.00
20260507081517 5 273 0.0 0.0 0.00 0.23 0.00
20260507081019 5 273 0.0 0.0 0.00 0.23 0.00
20260507080520 5 273 0.0 0.0 0.00 0.23 0.00
20260507080022 5 273 0.0 0.0 0.00 0.23 0.00
20260507075523 5 273 0.0 0.0 0.00 0.23 0.00
20260507075025 5 273 0.0 0.0 0.00 0.23 0.00
20260507074527 5 273 0.0 0.0 0.00 0.23 0.00
20260507074028 5 273 0.0 0.0 0.00 0.23 0.00
20260507073530 5 273 0.0 0.0 0.00 0.23 0.00
20260507073031 5 273 0.0 0.0 0.00 0.23 0.00
20260507072532 5 273 0.0 0.0 0.00 0.23 0.00
20260507072034 6 273 0.0 0.0 0.00 0.23 0.00
20260507071536 6 273 0.0 0.0 0.00 0.23 0.00
20260507071037 6 273 0.0 0.0 0.00 0.23 0.00
20260507070539 6 273 0.0 0.0 0.00 0.23 0.00
20260507070041 6 273 0.0 0.0 0.00 0.23 0.00
20260507065542 6 273 0.0 0.0 0.00 0.23 0.00
20260507065044 6 273 0.0 0.0 0.00 0.23 0.00
20260507064546 6 273 0.0 0.0 0.00 0.23 0.00
20260507064047 5 273 0.0 0.0 0.00 0.23 0.00
20260507063549 6 273 0.0 0.0 0.00 0.23 0.00
20260507063050 6 273 0.0 0.0 0.00 0.23 0.00
20260507062552 6 273 0.0 0.0 0.00 0.23 0.00
20260507062053 6 273 0.0 0.0 0.00 0.23 0.00
20260507061555 6 273 0.0 0.0 0.00 0.23 0.00
20260507061056 6 273 0.0 0.0 0.00 0.23 0.00
20260507060558 6 273 0.0 0.0 0.00 0.23 0.00
20260507060100 6 273 0.0 0.0 0.00 0.23 0.00
20260507055601 6 273 0.0 0.0 0.00 0.23 0.00
20260507055103 6 273 0.0 0.0 0.00 0.23 0.00
20260507054604 6 273 0.0 0.0 0.00 0.23 0.00
20260507054106 7 273 0.0 0.0 0.00 0.23 0.00
20260507053604 7 273 0.0 0.0 0.00 0.23 0.00
20260507053106 7 273 0.0 0.0 0.00 0.23 0.00
20260507052605 7 273 0.0 0.0 0.00 0.23 0.00
20260507052107 7 273 0.0 0.0 0.00 0.23 0.00
20260507051608 7 273 0.0 0.0 0.00 0.23 0.00
20260507051110 7 273 0.0 0.0 0.00 0.23 0.00
20260507050611 7 273 0.0 0.0 0.00 0.23 0.00
20260507050113 7 273 0.0 0.0 0.00 0.23 0.00
20260507045615 7 273 0.0 0.0 0.00 0.23 0.00
20260507045116 7 273 0.0 0.0 0.00 0.74 0.23
20260507044618 7 273 0.0 0.0 0.00 0.74 0.23
20260507044119 7 273 0.0 0.0 0.00 0.74 0.23
20260507043621 7 273 0.0 0.0 0.00 0.74 0.23
20260507043122 7 273 0.0 0.0 0.00 0.74 0.23
20260507042624 7 273 0.0 0.0 0.00 0.74 0.23
20260507042125 7 273 0.0 0.0 0.00 0.74 0.23
20260507041627 7 273 0.0 0.0 0.00 0.74 0.23
20260507041128 7 273 0.0 0.0 0.00 0.74 0.23
20260507040630 7 273 0.0 0.0 0.00 0.74 0.23
20260507040131 7 273 0.0 0.0 0.00 0.74 0.23
20260507035633 8 273 0.0 0.0 0.00 0.74 0.23
20260507035134 8 273 0.0 0.0 0.00 0.74 0.23
20260507034635 8 273 0.0 0.0 0.00 0.74 0.23
20260507034137 8 273 0.0 0.0 0.00 0.74 0.23
20260507033638 8 273 0.0 0.0 0.00 0.74 0.23
20260507033140 8 273 0.0 0.0 0.00 0.74 0.23
20260507032642 8 273 0.0 0.0 0.00 0.74 0.23
20260507032143 8 273 0.0 0.0 0.00 0.74 0.23
20260507031644 8 273 0.0 0.0 0.00 0.74 0.23
20260507031147 8 273 0.0 0.0 0.00 0.74 0.23
20260507030648 8 273 0.0 0.0 0.00 0.74 0.23
20260507030149 8 273 0.0 0.0 0.00 0.74 0.23
20260507025651 8 273 0.0 0.0 0.00 0.74 0.23
20260507025153 8 273 0.0 0.0 0.00 0.74 0.23
20260507024654 9 273 0.0 0.0 0.00 0.74 0.23
20260507024157 9 273 0.0 0.0 0.00 0.74 0.23
20260507023657 9 273 0.0 0.0 0.00 0.74 0.23
20260507023159 9 273 0.0 0.0 0.00 0.74 0.23
20260507022700 9 273 0.0 0.0 0.00 0.74 0.23
20260507022202 9 273 0.0 0.0 0.00 0.74 0.23
20260507021702 9 273 0.0 0.0 0.00 0.74 0.23
20260507021202 9 273 0.0 0.0 0.00 0.74 0.23
20260507020702 10 273 0.0 0.0 0.00 0.74 0.23
20260507020204 10 273 0.0 0.0 0.00 0.74 0.23
20260507015705 10 273 0.0 0.0 0.00 0.74 0.23
20260507015207 10 273 0.0 0.0 0.00 0.74 0.23
20260507014708 10 273 0.0 0.0 0.00 0.74 0.23
20260507014210 10 273 0.0 0.0 0.00 0.74 0.23
20260507013711 10 273 0.0 0.0 0.00 0.74 0.23
20260507013213 11 243 3.2 0.0 0.00 0.74 0.23
20260507012715 11 295 0.0 0.0 0.00 0.74 0.23
20260507012216 11 295 0.0 0.0 0.00 0.74 0.23
20260507011718 11 295 1.6 0.0 0.00 0.74 0.23
20260507011220 11 280 6.4 0.0 0.00 0.74 0.23
20260507010721 11 263 4.8 4.8 0.00 0.74 0.23
20260507010223 11 259 4.8 3.2 0.00 0.74 0.23
20260507005725 11 245 0.0 8.0 0.00 0.74 0.23
20260507005224 11 302 4.8 6.4 0.00 0.74 0.23
20260507004727 12 255 6.4 4.8 0.00 0.74 0.23
20260507004227 11 287 6.4 1.6 0.00 0.74 0.23
20260507003729 12 266 9.7 8.0 0.00 0.74 0.23
20260507003231 12 264 4.8 0.0 0.00 0.74 0.23
20260507002733 12 235 3.2 8.0 0.00 0.74 0.23
20260507002235 12 218 8.0 9.7 0.00 0.74 0.23
20260507001735 12 255 6.4 9.7 0.00 0.74 0.23
20260507001237 12 245 8.0 9.7 0.00 0.74 0.23
20260507000739 12 307 3.2 6.4 0.00 0.74 0.23
20260507000240 13 356 3.2 8.0 0.00 0.74 0.23
20260506235742 13 193 6.4 12.9 0.00 0.74 0.23
20260506235243 12 278 8.0 4.8 0.00 0.74 0.23
20260506234745 12 280 3.2 4.8 0.00 0.74 0.23
20260506234246 13 287 0.0 0.0 0.00 0.74 0.23
20260506233748 12 287 0.0 0.0 0.00 0.74 0.23
20260506233250 12 287 6.4 0.0 0.00 0.74 0.23
20260506232751 12 236 1.6 9.7 0.00 0.74 0.23
20260506232253 12 280 4.8 0.0 0.00 0.74 0.23
20260506231754 12 307 6.4 0.0 0.00 0.74 0.23
20260506231256 13 290 0.0 0.0 0.00 0.74 0.23
20260506230757 12 290 0.0 0.0 0.00 0.74 0.23
20260506230258 12 290 0.0 0.0 0.00 0.74 0.23
20260506225800 11 349 9.7 0.0 0.00 0.74 0.23
20260506225301 12 322 6.4 8.0 0.00 0.74 0.23